This is the latest recevied weather packets stored in our database for station/object WX4HP-13. If no packets are shown the sender has not sent any weather packets the latest 10 day(s).
| Time | Temp. | Humidity | Pressure | Rain* | Wind** | Luminosity | Snow |
|---|---|---|---|---|---|---|---|
| 1777737296 | 14.44° C | 48% | 1016.5 hPa | 0 mm | - | - | - |
| 1777736996 | 13.89° C | 47% | 1016.5 hPa | 0 mm | - | - | - |
| 1777736696 | 14.44° C | 47% | 1016.4 hPa | 0 mm | - | - | - |
| 1777736396 | 13.89° C | 48% | 1016.4 hPa | 0 mm | - | - | - |
| 1777736133 | 13.89° C | 48% | 1016.3 hPa | 0 mm | - | - | - |
| 1777736096 | 13.89° C | 48% | 1016.3 hPa | 0 mm | - | - | - |
| 1777735797 | 13.89° C | 46% | 1016.3 hPa | 0 mm | - | - | - |
| 1777735497 | 13.89° C | 46% | 1016.4 hPa | 0 mm | - | - | - |
| 1777735197 | 13.89° C | 47% | 1016.3 hPa | 0 mm | - | - | - |
| 1777734897 | 13.89° C | 48% | 1016.3 hPa | 0 mm | - | - | - |
| 1777734597 | 13.33° C | 48% | 1016.3 hPa | 0 mm | - | - | - |
| 1777734296 | 13.33° C | 49% | 1016.3 hPa | 0 mm | - | - | - |
| 1777733996 | 13.33° C | 49% | 1016.3 hPa | 0 mm | - | - | - |
| 1777733696 | 13.33° C | 51% | 1016.3 hPa | 0 mm | - | - | - |
| 1777733397 | 13.33° C | 50% | 1016 hPa | 0 mm | - | - | - |
| 1777733096 | 13.33° C | 50% | 1016 hPa | 0 mm | - | - | - |
| 1777732496 | 12.78° C | 52% | 1015.8 hPa | 0 mm | - | - | - |
| 1777732195 | 12.78° C | 57% | 1015.6 hPa | 0 mm | - | - | - |
| 1777731896 | 12.78° C | 58% | 1015.7 hPa | 0 mm | - | - | - |
| 1777731686 | 12.22° C | 58% | 1015.7 hPa | 0 mm | - | - | - |
| 1777731596 | 12.22° C | 58% | 1015.7 hPa | 0 mm | - | - | - |
| 1777731297 | 12.22° C | 58% | 1015.7 hPa | 0 mm | - | - | - |
| 1777730997 | 12.22° C | 58% | 1015.7 hPa | 0 mm | - | - | - |
| 1777730696 | 11.67° C | 58% | 1015.7 hPa | 0 mm | - | - | - |
| 1777730397 | 11.67° C | 59% | 1015.6 hPa | 0 mm | - | - | - |
* Rain latest hour (hover to see other rain measurements)
** Current wind speed in m/s (hover to see current wind gust speed)